• MPC Preparation (Info)

  • MPEC 2013-U62 : 2013 UH5

    The following Minor Planet Electronic Circular may be linked-to from your own Web pages, but must not otherwise be redistributed electronically.

    A form allowing access to any MPEC is at the bottom of this page.


    Read MPEC 2013-U61 Read MPEC 2013-U63


    M.P.E.C. 2013-U62                                Issued 2013 Oct. 28, 12:04 UT
    
         The Minor Planet Electronic Circulars contain information on unusual
             minor planets and routine data on comets.  They are published
       on behalf of Commission 20 of the International Astronomical Union by the
              Minor Planet Center, Smithsonian Astrophysical Observatory,
                              Cambridge, MA 02138, U.S.A.
    
                 Prepared using the Tamkin Foundation Computer Network
    
                                  MPC@CFA.HARVARD.EDU
                URL https://www.minorplanetcenter.net/    ISSN 1523-6714
    
                                       2013 UH5
    
    Observations:
         K13U05H* C2013 10 26.35265 03 03 08.60 -09 21 06.3          19.8 VqEU062703
         K13U05H  C2013 10 26.36187 03 03 07.59 -09 19 33.2          19.4 VqEU062703
         K13U05H  C2013 10 26.37108 03 03 06.52 -09 18 02.0          19.3 VqEU062703
         K13U05H  C2013 10 26.38030 03 03 05.55 -09 16 31.2          19.2 VqEU062703
         K13U05H KC2013 10 27.06913 03 02 20.21 -07 16 58.7                qEU062J95
         K13U05H KC2013 10 27.07255 03 02 19.87 -07 16 21.9          18.8 RqEU062J95
         K13U05H KC2013 10 27.21852303 02 13.35 -06 49 07.4          19.3 VuEU062H21
         K13U05H KC2013 10 27.22112703 02 13.04 -06 48 38.4          19.3 VuEU062H21
         K13U05H KC2013 10 27.22360803 02 12.76 -06 48 10.8          19.1 VuEU062H21
         K13U05H KC2013 10 27.22609003 02 12.47 -06 47 43.0          19.2 VuEU062H21
         K13U05H KC2013 10 27.22968703 02 12.04 -06 47 02.9          19.3 VuEU062H21
         K13U05H KC2013 10 27.33001 03 02 01.09 -06 28 11.3          18.7 RqEU062734
         K13U05H KC2013 10 27.33276 03 02 00.77 -06 27 39.3          18.0 RqEU062734
         K13U05H KC2013 10 27.34417 03 01 59.39 -06 25 30.0          18.7 RqEU062734
         K13U05H `C2013 10 27.66800003 01 35.65 -05 19 51.7          18.4 RqEU062D90
         K13U05H `C2013 10 27.67071903 01 35.27 -05 19 20.3          18.8 RqEU062D90
         K13U05H `C2013 10 27.67408603 01 34.88 -05 18 39.8          18.5 RqEU062D90
         K13U05H KC2013 10 28.14467 03 01 06.75 -03 44 51.4          17.9 RuEU062G48
         K13U05H KC2013 10 28.14572 03 01 06.64 -03 44 38.3          17.9 RuEU062G48
         K13U05H KC2013 10 28.14732 03 01 06.51 -03 44 18.3          17.9 RuEU062G48
         K13U05H  C2013 10 28.37050 03 00 37.61 -02 56 28.6          18.5 VqEU062G96
         K13U05H  C2013 10 28.37562 03 00 36.87 -02 55 21.3          17.8 VqEU062G96
         K13U05H  C2013 10 28.37789 03 00 36.57 -02 54 51.6          18.5 VqEU062G96
         K13U05H  C2013 10 28.38016 03 00 36.28 -02 54 22.2          18.2 VqEU062G96
    
    Observer details:
    703 Catalina Sky Survey.  Observer R. A. Kowalski.  Measurers A. Boattini,
        E. J. Christensen, A. R. Gibbs, A. D. Grauer, R. E. Hill, J. A. Johnson,
        R. A. Kowalski, S. M. Larson, F. C. Shelly.  0.68-m Schmidt + CCD.
    734 Farpoint Observatory.  Observer G. Hug.  0.69-m reflector + CCD.
    D90 RAS Observatory, Moorook.  Observer K. Hills.  0.41-m f/9 Ritchey-Chretien
        + CCD.
    G48 Doc Greiner Research Obs., Rancho Hildalgo.  Observer M. Mills.  0.4-m
        f/10 Schmidt-Cassegrain + CCD.
    G96 Mt. Lemmon Survey.  Observer J. A. Johnson.  Measurers A. Boattini,
        E. J. Christensen, A. R. Gibbs, A. D. Grauer, R. E. Hill, J. A. Johnson,
        R. A. Kowalski, S. M. Larson, F. C. Shelly.  1.5-m reflector + CCD.
    H21 Astronomical Research Observatory, Westfield.  Observer R. Holmes.
        Measurers T. Linder, S. Foglia, L. Buzzi, T. Vorobjov.  0.61-m f/4.5
        astrograph + CCD.
    J95 Great Shefford.  Observer P. Birtwhistle.  0.40-m f/6.0 Schmidt-Cassegrain
        + CCD.
    
    Orbital elements:
    2013 UH5                                                 Earth MOID = 0.0399 AU
    Epoch 2013 Nov. 4.0 TT = JDT 2456600.5                  MPC
    M 338.98836              (2000.0)            P               Q
    n   0.63772912     Peri.   38.66340     +0.22182547     -0.96227089
    a   1.3367347      Node    39.25107     +0.82127523     +0.09726709
    e   0.2595728      Incl.   14.42044     +0.52564290     +0.25411385
    P   1.55           H   23.8           G   0.15           U   7
    Residuals in seconds of arc
    131026 703  0.6-  0.2-    131027 H21  0.0   0.0     131027 D90  0.2+  0.0
    131026 703  0.3-  1.1+    131027 H21  0.0   0.1+    131028 G48  0.5-  0.8+
    131026 703  1.0-  0.4+    131027 H21  0.1-  0.0     131028 G48  0.5-  0.6+
    131026 703  0.3-  0.9-    131027 734  0.0   0.0     131028 G48  0.1+  0.4+
    131027 J95  0.2+  0.1+    131027 734  0.2+  0.7+    131028 G96  0.0   0.4-
    131027 J95  0.6+  0.6-    131027 734  0.1-  0.1+    131028 G96  0.4-  0.2-
    131027 H21  0.0   0.1+    131027 D90  0.1+  0.7+    131028 G96  0.1-  0.2-
    131027 H21  0.1-  0.1+    131027 D90  0.4-  0.3-    131028 G96  0.3+  0.6-
    
    Ephemeris:
    2013 UH5                 a,e,i = 1.34, 0.26, 14                  q = 0.9898
    Date    TT    R. A. (2000) Decl.     Delta      r     Elong.  Phase     V
    2013 09 28    02 59 53.2 -31 09 26   0.2121  1.1481   129.3    42.5    22.4
    ...
    2013 10 13    03 07 36.2 -27 12 30   0.1302  1.0943   135.3    39.9    21.1
    ...
    2013 10 21    03 06 50.0 -19 57 01   0.08963 1.0685   143.0    34.1    20.1
    ...
    2013 10 27    03 02 26.5 -07 27 41   0.06241 1.0509   155.3    23.2    19.0
    2013 10 28    03 01 10.9 -04 13 56   0.05842 1.0482   158.4    20.4    18.7
    2013 10 29    02 59 42.6 -00 31 52   0.05466 1.0455   161.9    17.2    18.5
    ...
    2013 11 04    02 43 17.9 +33 42 02   0.04052 1.0303   161.5    17.8    17.8
    ...
    2013 11 12    00 19 55.9 +80 28 05   0.05397 1.0135   114.6    62.7    19.7
    ...
    2013 11 27    16 02 33.5 +68 51 35   0.1165  0.9935    89.9    83.3    22.0
    
    A. U. Tomatic                (C) Copyright 2013 MPC           M.P.E.C. 2013-U62
    

    Read MPEC 2013-U61 Read MPEC 2013-U63


    MPEC number:

    Enter an MPEC number in one of the following forms:

    • 1997-B01 (the full form)
    • J97B01 (the packed version of the full form)
    • B01 (the abbreviated form)